Vertical_Velocity
21 21 20 19 17 14 10 5 1 -0 0 2 1 0 0 1 2 2 3 5 5 6 7 7 4 2 1 4 5 3 1 0 3 4 4 3 4 6 7 8 7 6 6 6 5 5 4 2 1 -0 -2 -2 -1 -1 0 1 1 0 -1 -1 -3 -0 5 9 4 -2 -8 -8 -3
16 18 21 24 22 18 14 10 9 8 8 6 5 3 1 1 1 2 2 3 3 4 5 7 6 4 3 4 5 3 -0 -2 1 2 1 -2 -2 0 4 7 7 6 6 6 6 6 5 4 3 1 -1 -1 -0 -0 -0 0 3 3 1 -1 -1 1 4 7 5 3 2 7 15
14 15 17 21 18 15 14 15 16 17 17 15 12 8 5 4 4 4 2 0 1 2 2 3 3 2 1 0 3 2 -0 -1 -0 1 1 -0 -1 -0 2 5 6 5 3 3 4 5 5 5 5 3 2 -1 0 0 -0 0 3 4 2 -1 1 3 3 2 2 3 3 3 5
19 17 17 18 16 14 14 15 16 17 17 15 11 7 5 4 4 4 2 1 1 0 -1 -4 -5 -5 -5 -3 -1 -1 -3 -4 -2 -1 -0 1 2 2 3 4 6 5 2 0 1 2 3 4 5 4 3 -0 -0 -1 -1 0 3 3 -0 -4 -1 0 1 1 3 4 4 -0 -2
16 12 9 8 8 10 12 14 13 14 14 14 11 8 5 3 3 3 3 2 1 0 -2 -4 -5 -6 -6 -5 -4 -5 -6 -7 -7 -6 -5 -3 0 2 3 3 3 2 0 -1 -1 -1 -0 1 2 2 1 0 -1 -1 -1 2 4 1 -3 -5 -5 -5 -4 -1 1 3 4 1 -1
1 -2 -4 -5 -3 -1 3 5 4 4 5 7 8 7 5 3 3 3 2 2 1 1 0 0 -1 -1 -2 -2 -3 -4 -5 -5 -6 -6 -6 -6 -4 -2 -0 0 -0 -0 -0 -1 -1 -1 -1 -0 0 1 2 3 1 -1 -1 4 3 0 -2 -2 -7 -7 -5 -2 -1 2 4 2 1
-8 -8 -7 -6 -5 -3 -2 -2 -1 -0 0 1 3 4 4 4 5 5 5 4 3 3 3 4 5 5 5 5 4 2 -1 -3 -3 -3 -3 -3 -5 -6 -6 -6 -4 -2 -1 -0 0 0 0 2 2 0 -1 -2 -3 -3 -2 2 1 0 -1 -2 -6 -5 -1 -2 -2 1 4 1 1
-6 -6 -5 -4 -4 -3 -3 -3 -2 -1 0 2 3 4 5 6 8 8 8 7 7 7 8 9 9 10 11 13 10 6 2 -1 -2 -2 -2 -1 -0 -1 -2 -4 -4 -4 -3 -2 -1 -1 -1 0 3 2 -1 -4 -4 -5 -4 -0 -1 -2 -3 -5 -6 -3 0 -1 -0 2 3 1 1
-1 -1 -1 -1 -2 -2 -3 -3 -3 -3 -2 -2 -2 -2 -1 2 4 4 4 2 1 2 3 6 8 10 14 16 14 10 6 2 0 0 2 5 6 5 4 2 1 -1 -3 -3 -3 -4 -5 -3 -0 0 -0 -0 -1 -2 -2 1 3 -1 -5 -6 -7 -6 -3 -2 0 1 1 0 -0
0 2 2 3 1 -1 -1 -1 -2 -3 -5 -7 -8 -8 -7 -6 -4 -3 -2 -2 -2 -1 0 2 4 7 12 16 17 15 11 6 4 5 7 10 10 9 8 6 5 4 3 2 1 -1 -4 -4 -2 -2 -1 1 2 1 1 4 7 5 3 4 6 7 6 1 -0 -2 -4 -6 -5
-2 -0 2 3 3 2 1 0 -0 -1 -3 -5 -6 -7 -7 -7 -7 -6 -4 -2 -0 -0 -1 -3 -2 0 4 11 16 16 14 11 8 7 7 8 8 8 8 8 6 6 5 5 4 2 0 -0 0 0 0 1 2 3 5 8 11 14 17 20 22 23 21 14 10 7 5 5 7
-4 -3 -1 1 3 4 4 3 3 1 0 -1 -2 -3 -4 -4 -4 -4 -2 -0 0 -1 -4 -6 -6 -4 -2 3 8 11 13 12 8 5 4 4 3 3 5 6 6 5 4 3 3 3 3 3 4 4 3 2 2 3 5 7 7 7 7 8 10 13 16 18 18 19 20 21 20
-2 -2 -2 -1 1 2 3 3 3 3 3 2 1 -0 -1 -1 -1 -1 0 1 0 -1 -2 -4 -2 -2 -1 -1 2 6 9 9 6 4 2 1 0 0 2 4 5 4 3 2 1 2 3 4 5 5 4 3 2 1 -0 -2 -3 -4 -4 -4 -5 -2 3 10 13 15 16 16 15
1 0 -0 -1 -1 0 1 1 2 2 3 3 3 2 1 1 1 1 1 2 1 -0 0 3 4 3 1 0 5 9 12 13 10 6 2 0 -0 0 1 2 2 2 1 -0 -0 0 1 1 2 2 1 -1 -2 -4 -5 -6 -6 -5 -5 -6 -6 -4 -1 1 2 2 3 2 2
4 4 3 2 1 1 1 2 3 4 5 6 6 5 5 5 4 4 5 6 5 3 2 2 2 1 -0 -1 1 3 6 9 7 4 0 -1 -1 -0 -0 -0 -1 -1 -2 -2 -2 -2 -2 -2 -2 -2 -2 -3 -4 -4 -4 -4 -4 -4 -4 -4 -4 -2 -2 -1 -1 -1 -1 -2 -2
5 5 5 5 4 4 4 5 6 7 9 10 9 9 9 9 9 9 10 10 9 7 4 3 2 1 0 0 1 1 2 3 1 -1 -3 -3 -3 -2 -2 -2 -2 -3 -3 -3 -3 -3 -3 -3 -3 -3 -3 -3 -3 -3 -3 -3 -3 -2 -2 -2 -1 -1 -1 -0 0 0 0 -1 -2
1 2 3 4 5 5 5 5 6 7 8 9 9 10 10 10 10 10 9 9 7 5 3 2 2 1 1 1 1 1 0 -0 -2 -3 -4 -5 -5 -4 -4 -4 -4 -4 -5 -5 -5 -4 -4 -4 -3 -3 -3 -3 -3 -3 -3 -2 -2 -1 -0 0 0 0 0 -0 -0 -0 -1 -1 -1
-1 -0 0 1 2 3 3 3 3 3 3 4 5 6 7 8 8 8 7 5 5 4 3 2 1 1 1 1 0 -0 -1 -2 -3 -4 -4 -5 -5 -5 -5 -5 -5 -6 -6 -7 -7 -6 -6 -5 -4 -4 -4 -4 -4 -4 -3 -3 -2 -1 -0 0 0 0 0 -0 -1 -1 -1 -1 -1
-0 -0 -0 0 0 0 -0 -0 -0 -1 -1 -0 1 2 3 3 3 3 3 2 3 4 4 1 -0 -0 0 -0 -1 -2 -2 -2 -3 -3 -4 -4 -4 -4 -4 -5 -5 -6 -6 -7 -7 -7 -7 -6 -6 -6 -5 -5 -5 -5 -4 -4 -4 -3 -2 -1 -1 -0 -0 -0 -0 -1 -1 -1 -1
0 0 0 0 0 -0 -1 -1 -1 -2 -2 -2 -1 -1 -1 -1 -1 -0 0 0 0 0 0 -0 -1 -1 -1 -1 -2 -2 -1 1 0 -1 -2 -3 -4 -4 -3 -3 -4 -4 -5 -5 -6 -6 -6 -6 -6 -6 -6 -6 -6 -6 -5 -5 -5 -4 -4 -3 -2 -2 -1 -1 -1 -0 0 0 0
0 0 0 0 0 -0 -1 -2 -2 -2 -1 -2 -2 -2 -3 -2 -1 0 1 1 -1 -1 -0 0 0 0 0 0 -0 -0 -0 1 2 2 0 -2 -3 -4 -4 -3 -2 -2 -2 -3 -3 -4 -4 -4 -5 -5 -6 -6 -6 -5 -4 -3 -3 -3 -3 -3 -3 -3 -2 -2 -1 -1 0 1 1
0 0 0 0 0 -0 -1 -1 -2 -1 -1 -1 -1 -1 -1 0 1 2 2 2 1 1 0 1 1 2 2 3 2 2 1 1 1 1 0 -1 0 3 5 3 0 -0 -0 0 -0 -1 -2 -3 -3 -4 -4 -5 -4 -4 -2 -1 -1 -1 -1 -2 -3 -3 -3 -2 -2 -1 -1 0 1
1 0 0 0 0 -0 -1 -1 -1 -1 -1 -1 -1 0 1 2 2 3 3 3 3 2 1 1 1 1 2 3 3 2 2 2 1 1 0 -1 1 3 4 3 1 -0 -0 1 1 0 -1 -2 -2 -2 -3 -4 -4 -4 -3 -2 -2 -1 -1 -1 -2 -2 -2 -2 -2 -2 -1 -0 0
2 2 1 1 1 0 -0 -0 -1 -1 -1 -0 -0 0 1 1 2 2 2 2 2 2 2 1 1 1 1 1 1 1 1 1 1 1 1 0 0 -0 -0 -1 -1 -1 -1 -1 0 1 1 1 1 1 -0 -1 -3 -4 -4 -3 -3 -2 -2 -2 -2 -2 -2 -2 -3 -3 -2 -1 -1
1 1 1 1 1 1 1 1 1 1 1 1 1 1 1 1 1 1 1 1 1 1 1 1 1 1 1 1 1 0 0 0 1 1 1 1 1 0 0 -1 -1 -1 -1 -1 -0 1 2 5 3 2 1 1 0 -1 -2 -2 -2 -2 -2 -2 -2 -2 -2 -2 -3 -3 -2 -2 -2
-1 -2 -1 -1 -1 0 0 1 1 2 2 3 3 3 3 3 2 2 2 1 1 1 0 0 -0 -0 0 0 0 -0 -0 -1 -1 -1 -0 -0 0 1 1 0 0 -0 -0 0 1 1 1 1 -0 -1 -2 -2 -1 1 3 4 4 3 1 -1 -1 -0 -0 -0 0 0 -0 -2 -3
-1 -2 -2 -3 -3 -2 -2 -1 -0 1 2 2 3 3 4 4 3 3 3 2 2 1 1 0 0 -0 -1 -0 -0 -1 -1 -1 -1 -1 -1 -0 -0 0 0 1 1 1 1 2 2 1 1 0 -1 -2 -3 -4 -4 -4 -1 4 7 7 4 2 1 0 0 1 4 5 4 -0 -2
1 0 -1 -1 -2 -2 -3 -2 -2 -1 -1 0 1 2 2 3 3 3 3 3 2 2 2 2 1 0 -0 -0 -1 -1 -2 -2 -1 -1 -1 -0 -0 0 1 1 1 2 3 4 3 2 1 1 -0 -1 -2 -3 -4 -5 -6 -5 -2 1 3 3 1 -1 -1 0 5 8 8 3 -1
1 1 0 -0 -1 -1 -1 -1 -1 -1 -1 -1 -0 0 1 1 1 2 2 2 2 2 2 2 2 2 1 1 0 -1 -2 -2 -2 -1 -1 -1 -1 -1 -0 0 1 2 3 4 4 4 3 2 1 -0 -1 -2 -2 -4 -5 -7 -8 -6 -3 0 -1 -2 -3 -1 6 10 11 7 2
0 -0 -0 -1 -1 -1 -0 -0 -1 -1 -1 -1 -1 -1 -1 -1 -0 -0 0 1 1 1 1 2 2 2 2 2 1 0 -0 -1 -2 -2 -2 -3 -2 -2 -2 -1 -1 0 2 3 4 4 5 4 4 2 1 -0 -1 -2 -4 -5 -7 -7 -7 -5 -5 -5 -4 -2 3 9 13 11 5
-2 -2 -2 -2 -1 -1 -1 -0 0 -0 -1 -1 -2 -2 -2 -3 -2 -2 -2 -1 -1 -1 -1 -0 0 1 1 2 2 2 2 2 0 -1 -2 -3 -3 -3 -3 -2 -2 -1 0 1 2 3 4 5 5 4 3 2 0 -1 -2 -2 -3 -5 -7 -8 -8 -7 -5 -4 -2 3 9 11 7
-4 -3 -3 -3 -2 -2 -2 -1 -0 0 0 0 -1 -1 -2 -2 -3 -3 -3 -3 -2 -2 -2 -2 -2 -2 -2 -1 -0 1 2 2 2 0 -1 -2 -2 -2 -2 -1 -1 -1 -0 -0 0 1 3 4 4 4 4 3 2 0 -1 -1 -1 -2 -3 -5 -7 -7 -7 -7 -6 -1 4 7 6
-3 -3 -3 -3 -3 -3 -3 -3 -2 -2 -1 -0 -1 -1 -1 -2 -2 -2 -2 -2 -2 -2 -2 -2 -2 -2 -3 -3 -2 -2 -1 -1 -0 -0 -1 -2 -2 -2 -2 -1 0 0 0 -1 -1 -0 1 2 3 3 3 3 2 1 0 -0 -1 -1 -1 -2 -3 -4 -6 -8 -7 -4 -1 2 2
-0 -0 -1 -1 -1 -2 -2 -2 -3 -2 -2 -1 -1 -2 -2 -2 -2 -2 -2 -2 -1 -1 -1 -1 -1 -1 -2 -2 -1 -2 -2 -2 -2 -2 -2 -3 -3 -3 -3 -1 0 1 0 -1 -1 -0 0 0 1 2 2 2 1 0 -0 -0 -1 -1 -1 -1 -1 -1 -2 -4 -5 -6 -5 -3 -2
1 1 1 1 1 0 -0 -1 -1 -1 -1 -2 -2 -2 -1 -2 -2 -3 -3 -3 -2 -1 -1 -2 -1 -1 -1 -1 -1 -1 -1 -1 -1 -1 -1 -2 -3 -4 -3 -2 -1 -0 -0 -0 -0 -0 0 -0 0 1 1 1 -0 -0 -1 -0 -1 -1 -1 -1 -1 -1 0 0 -1 -3 -5 -6 -4
1 2 2 2 2 2 1 1 0 0 -0 -1 -1 -1 -1 -0 -1 -2 -3 -3 -2 -2 -2 -2 -1 -1 -1 -2 -1 -1 -1 -1 -0 0 0 0 -1 -2 -3 -3 -1 -1 -1 -1 -1 -0 -0 -0 -0 0 0 -0 -1 -1 -1 -0 -1 -1 -1 -2 -2 -1 -0 1 1 -0 -2 -5 -5
-1 -0 0 1 1 2 2 1 1 1 1 0 0 -0 -0 0 0 0 -1 -1 -1 -2 -2 -1 -0 -1 -1 -2 -1 -1 -1 -1 -0 -0 -0 1 0 -1 -2 -2 -1 -0 0 -0 -1 -1 -1 -1 -0 -0 -1 -1 -1 -1 -0 -0 -1 -1 -2 -2 -2 -2 -1 -1 -0 0 -0 -2 -4
-4 -3 -3 -2 -1 -1 -0 0 0 -0 -0 -0 0 0 -0 -0 0 0 0 1 -0 -1 -2 -0 0 -0 -1 -1 -1 -1 -1 0 -0 -1 -1 -1 0 -0 -1 -1 -0 1 2 1 -1 -1 -1 -1 -1 -1 -1 -1 -1 -1 -0 -0 -1 -2 -2 -2 -2 -2 -2 -2 -2 -1 -0 -0 -2
-4 -4 -4 -4 -4 -3 -2 -2 -2 -2 -2 -2 -1 -1 -1 -1 -1 -1 -1 0 -1 -2 -3 -2 -1 -1 -1 -1 -1 -1 -1 1 1 -0 -1 -2 -1 -1 -0 -1 -0 1 3 2 1 -0 -1 -1 -1 -1 -1 -1 -1 -1 -0 -1 -2 -2 -2 -2 -2 -2 -3 -3 -2 -2 -1 -1 -1
-3 -3 -4 -4 -4 -4 -4 -3 -3 -3 -3 -3 -3 -3 -2 -2 -2 -2 -2 -1 -1 -2 -3 -3 -3 -2 -1 -1 -2 -3 -2 0 1 1 -0 -2 -2 -1 -0 -1 -1 1 3 3 2 1 -0 -1 -1 -1 -1 -1 -1 -1 -0 -1 -1 -2 -2 -2 -2 -2 -3 -4 -3 -2 -2 -2 -1
-2 -2 -2 -2 -3 -3 -3 -3 -3 -2 -2 -2 -3 -3 -3 -2 -2 -2 -2 -2 -2 -2 -2 -3 -3 -2 -2 -2 -3 -4 -3 -2 0 1 1 -1 -2 -2 -1 -1 -1 0 2 3 3 2 1 0 -0 -0 -0 -1 -1 -1 -0 -0 -1 -1 -1 -1 -1 -1 -2 -3 -3 -3 -2 -1 -1
Height
3052 3053 3053 3055 3056 3056 3056 3056 3057 3058 3060 3061 3062 3064 3066 3067 3069 3070 3072 3073 3074 3075 3075 3076 3077 3079 3081 3082 3082 3084 3085 3087 3087 3088 3089 3090 3091 3092 3093 3093 3094 3095 3096 3096 3097 3097 3098 3098 3099 3099 3099 3100 3100 3101 3101 3102 3102 3102 3102 3103 3103 3104 3105 3105 3105 3105 3106 3106 3106
3051 3052 3052 3054 3054 3055 3055 3056 3057 3057 3058 3059 3060 3062 3064 3065 3067 3068 3069 3070 3072 3072 3073 3074 3074 3076 3077 3079 3079 3081 3082 3083 3085 3085 3086 3087 3088 3089 3089 3090 3090 3091 3092 3093 3093 3094 3095 3095 3096 3096 3096 3097 3097 3097 3098 3099 3099 3100 3100 3100 3101 3102 3102 3103 3103 3104 3105 3105 3104
3049 3051 3052 3053 3053 3053 3054 3055 3056 3057 3058 3058 3059 3060 3062 3063 3065 3066 3067 3068 3069 3070 3071 3072 3072 3073 3075 3076 3077 3077 3079 3080 3081 3082 3083 3084 3085 3086 3086 3087 3087 3087 3088 3089 3090 3091 3091 3092 3092 3092 3092 3093 3094 3094 3095 3095 3096 3097 3097 3097 3098 3098 3099 3099 3100 3101 3102 3102 3103
3048 3049 3051 3052 3052 3053 3053 3054 3055 3056 3057 3058 3059 3060 3061 3062 3063 3064 3065 3066 3067 3068 3069 3070 3071 3072 3073 3074 3074 3075 3076 3077 3077 3078 3079 3080 3081 3082 3083 3083 3083 3084 3085 3086 3087 3087 3088 3088 3089 3089 3089 3089 3090 3090 3091 3092 3093 3093 3093 3094 3095 3095 3095 3095 3096 3097 3097 3098 3099
3046 3047 3049 3050 3052 3053 3053 3054 3055 3056 3057 3058 3059 3059 3060 3061 3062 3063 3064 3065 3065 3066 3067 3067 3068 3069 3070 3071 3072 3072 3073 3074 3075 3076 3077 3077 3078 3078 3079 3079 3080 3081 3082 3082 3083 3084 3085 3085 3085 3085 3085 3086 3086 3086 3087 3088 3089 3089 3090 3090 3091 3091 3091 3091 3092 3092 3093 3093 3094
3045 3046 3047 3048 3050 3051 3052 3053 3054 3055 3056 3057 3057 3058 3059 3060 3061 3061 3062 3063 3063 3064 3065 3066 3066 3067 3068 3068 3069 3070 3070 3071 3072 3072 3073 3074 3075 3076 3076 3076 3076 3077 3078 3079 3080 3080 3081 3082 3082 3082 3082 3082 3082 3083 3084 3085 3085 3085 3086 3086 3087 3087 3088 3088 3088 3088 3088 3089 3089
3045 3046 3047 3048 3049 3050 3051 3052 3052 3053 3054 3055 3056 3057 3058 3059 3059 3059 3060 3061 3062 3062 3063 3064 3064 3065 3066 3066 3066 3067 3067 3067 3068 3069 3070 3071 3071 3072 3072 3073 3073 3074 3074 3075 3076 3077 3077 3078 3078 3078 3079 3079 3079 3080 3080 3081 3081 3082 3082 3082 3083 3084 3084 3084 3084 3084 3084 3084 3085
3046 3047 3047 3048 3049 3050 3050 3051 3052 3052 3053 3054 3055 3056 3056 3057 3057 3057 3058 3059 3059 3060 3061 3062 3062 3063 3064 3064 3064 3064 3064 3064 3065 3066 3067 3067 3067 3068 3068 3069 3070 3071 3071 3072 3072 3073 3073 3074 3075 3075 3075 3076 3076 3076 3077 3077 3078 3078 3077 3078 3078 3079 3079 3079 3079 3079 3080 3080 3080
3046 3047 3047 3048 3048 3049 3049 3050 3051 3051 3052 3052 3053 3054 3054 3055 3056 3056 3057 3057 3057 3058 3059 3059 3060 3061 3062 3062 3062 3062 3062 3062 3063 3063 3064 3064 3064 3065 3065 3066 3066 3067 3067 3068 3069 3069 3069 3070 3070 3071 3071 3072 3072 3072 3073 3074 3074 3074 3074 3074 3073 3073 3073 3074 3075 3075 3075 3076 3076
3045 3046 3047 3047 3047 3047 3048 3048 3049 3049 3050 3051 3051 3052 3053 3053 3054 3055 3055 3055 3056 3056 3057 3057 3057 3058 3058 3059 3059 3059 3059 3060 3060 3061 3061 3061 3062 3062 3062 3062 3063 3063 3063 3064 3064 3065 3065 3065 3066 3066 3067 3068 3068 3069 3069 3070 3070 3070 3069 3069 3069 3069 3069 3070 3070 3071 3072 3072 3072
3045 3046 3046 3047 3047 3047 3047 3047 3047 3047 3048 3049 3049 3050 3051 3052 3052 3053 3053 3054 3054 3054 3054 3054 3055 3055 3055 3056 3056 3057 3057 3057 3057 3058 3058 3058 3058 3059 3059 3059 3060 3060 3060 3060 3061 3061 3061 3062 3062 3062 3063 3063 3064 3064 3064 3065 3065 3065 3065 3066 3066 3067 3067 3067 3067 3068 3068 3068 3069
3044 3045 3045 3046 3046 3046 3046 3046 3046 3046 3047 3047 3047 3048 3049 3049 3050 3051 3052 3052 3052 3052 3052 3052 3052 3052 3052 3052 3053 3053 3054 3054 3054 3054 3055 3055 3056 3056 3056 3057 3057 3057 3057 3057 3057 3058 3058 3058 3059 3059 3059 3059 3059 3059 3059 3060 3060 3060 3060 3060 3061 3062 3062 3062 3064 3065 3065 3066 3066
3043 3044 3044 3045 3045 3045 3045 3045 3046 3046 3046 3046 3046 3047 3047 3047 3048 3049 3050 3050 3050 3051 3051 3050 3050 3050 3050 3050 3050 3051 3051 3051 3051 3052 3052 3052 3052 3053 3053 3053 3054 3054 3054 3054 3054 3055 3055 3055 3055 3055 3055 3055 3055 3055 3056 3056 3057 3057 3057 3057 3057 3058 3059 3059 3060 3061 3061 3062 3062
3042 3042 3043 3043 3043 3044 3044 3044 3045 3045 3045 3045 3045 3045 3046 3046 3047 3047 3047 3048 3048 3048 3049 3049 3049 3048 3048 3049 3049 3049 3049 3049 3049 3049 3049 3049 3049 3050 3050 3050 3050 3051 3051 3051 3051 3052 3052 3052 3052 3052 3052 3052 3052 3053 3053 3054 3054 3055 3055 3055 3055 3056 3056 3057 3057 3057 3057 3058 3058
3041 3041 3041 3042 3042 3042 3043 3043 3043 3044 3044 3044 3044 3044 3044 3045 3045 3045 3046 3046 3046 3046 3046 3046 3046 3046 3046 3046 3046 3046 3046 3047 3047 3046 3046 3046 3047 3047 3047 3047 3047 3048 3048 3048 3048 3048 3049 3049 3049 3050 3050 3050 3051 3051 3052 3052 3052 3052 3052 3052 3052 3053 3053 3054 3054 3054 3054 3055 3055
3039 3039 3040 3040 3041 3041 3042 3042 3042 3042 3042 3043 3043 3043 3043 3043 3044 3044 3044 3044 3044 3044 3044 3044 3044 3044 3044 3044 3044 3044 3044 3044 3044 3044 3044 3044 3045 3045 3045 3045 3045 3046 3046 3046 3046 3046 3047 3047 3047 3048 3048 3048 3049 3049 3049 3050 3050 3050 3050 3050 3050 3051 3051 3051 3052 3052 3052 3052 3052
3037 3038 3038 3038 3039 3039 3039 3040 3040 3040 3041 3041 3041 3041 3042 3042 3042 3042 3042 3042 3042 3042 3042 3042 3042 3042 3042 3042 3042 3042 3042 3042 3042 3042 3042 3042 3043 3043 3043 3043 3043 3043 3043 3043 3044 3044 3044 3045 3045 3046 3046 3047 3047 3047 3047 3047 3048 3048 3048 3048 3048 3049 3049 3049 3050 3050 3050 3050 3050
3036 3036 3037 3037 3037 3037 3037 3037 3038 3038 3038 3039 3039 3039 3039 3040 3040 3040 3040 3040 3040 3040 3040 3040 3040 3040 3040 3040 3040 3041 3041 3040 3040 3040 3041 3041 3041 3041 3041 3041 3041 3041 3041 3041 3041 3042 3042 3043 3043 3044 3044 3044 3045 3045 3045 3045 3046 3046 3046 3047 3047 3047 3047 3047 3048 3048 3048 3048 3048
3035 3035 3035 3035 3036 3036 3036 3036 3036 3036 3037 3037 3037 3037 3037 3037 3038 3038 3038 3038 3039 3039 3038 3038 3038 3039 3039 3039 3039 3039 3039 3039 3039 3039 3039 3039 3039 3039 3039 3039 3039 3039 3039 3039 3039 3039 3039 3040 3040 3041 3041 3042 3042 3042 3042 3043 3043 3044 3044 3044 3045 3045 3045 3046 3046 3046 3046 3046 3046
3034 3034 3034 3034 3034 3034 3034 3034 3034 3035 3035 3035 3035 3035 3035 3036 3036 3036 3036 3037 3037 3037 3037 3037 3037 3037 3037 3037 3038 3038 3038 3038 3038 3037 3037 3037 3037 3037 3037 3037 3037 3037 3037 3037 3037 3037 3037 3037 3038 3038 3038 3039 3039 3039 3040 3040 3041 3041 3041 3042 3042 3043 3043 3043 3043 3044 3044 3044 3044
3033 3033 3033 3033 3033 3033 3033 3033 3033 3033 3033 3033 3034 3034 3034 3034 3034 3034 3034 3034 3034 3035 3035 3035 3036 3036 3036 3036 3036 3036 3037 3037 3037 3037 3036 3036 3036 3036 3036 3036 3036 3036 3036 3036 3036 3036 3036 3036 3036 3036 3036 3036 3037 3037 3037 3038 3038 3038 3038 3039 3039 3040 3041 3041 3041 3041 3042 3042 3042
3033 3033 3033 3032 3032 3032 3032 3032 3032 3032 3032 3032 3032 3032 3032 3033 3033 3033 3032 3032 3033 3033 3033 3033 3034 3034 3034 3034 3034 3034 3035 3035 3035 3035 3035 3035 3035 3035 3035 3035 3035 3035 3035 3035 3035 3035 3034 3034 3034 3034 3034 3035 3035 3035 3036 3036 3036 3036 3037 3037 3037 3037 3038 3038 3038 3039 3039 3040 3040
3032 3032 3032 3032 3032 3032 3032 3032 3032 3032 3032 3032 3032 3032 3032 3032 3032 3032 3031 3031 3031 3031 3031 3032 3032 3032 3032 3032 3033 3033 3033 3033 3033 3033 3033 3034 3034 3034 3034 3034 3034 3034 3034 3034 3034 3033 3033 3033 3033 3033 3033 3033 3033 3033 3034 3034 3034 3034 3035 3035 3035 3035 3036 3036 3036 3037 3037 3037 3037
3032 3032 3031 3031 3031 3031 3031 3031 3031 3031 3031 3031 3031 3031 3031 3031 3031 3030 3030 3030 3030 3030 3030 3030 3030 3030 3030 3030 3031 3031 3031 3031 3031 3031 3032 3032 3032 3032 3032 3032 3032 3032 3032 3032 3032 3032 3032 3032 3031 3031 3032 3032 3032 3032 3032 3032 3032 3032 3033 3033 3033 3034 3034 3034 3034 3035 3035 3035 3035
3031 3031 3030 3030 3030 3030 3030 3030 3030 3030 3030 3030 3030 3029 3029 3029 3029 3029 3029 3028 3028 3028 3028 3028 3028 3028 3028 3028 3028 3028 3028 3029 3029 3029 3029 3030 3030 3030 3030 3030 3030 3030 3030 3030 3030 3030 3030 3030 3030 3030 3030 3030 3030 3030 3030 3030 3031 3031 3031 3031 3032 3032 3032 3032 3033 3033 3033 3033 3033
3029 3029 3029 3029 3029 3029 3028 3028 3028 3028 3028 3028 3028 3028 3028 3027 3027 3027 3027 3027 3027 3027 3026 3026 3026 3026 3026 3026 3026 3026 3026 3027 3027 3027 3027 3027 3027 3028 3028 3028 3028 3028 3028 3028 3029 3029 3028 3028 3028 3028 3027 3027 3028 3028 3029 3029 3029 3029 3029 3029 3029 3030 3030 3030 3031 3031 3032 3032 3032
3027 3027 3027 3027 3027 3027 3027 3027 3027 3027 3027 3027 3026 3026 3026 3026 3026 3025 3025 3025 3025 3024 3024 3024 3024 3024 3024 3024 3024 3024 3024 3024 3024 3025 3025 3025 3025 3025 3026 3026 3026 3026 3027 3027 3027 3027 3027 3027 3026 3026 3026 3025 3025 3025 3026 3026 3027 3027 3027 3027 3027 3027 3027 3027 3028 3029 3029 3029 3029
3025 3025 3025 3025 3025 3025 3025 3025 3025 3025 3025 3024 3024 3024 3024 3024 3023 3023 3023 3023 3023 3022 3022 3022 3022 3022 3022 3022 3022 3022 3022 3022 3022 3022 3022 3022 3023 3023 3023 3023 3024 3024 3024 3025 3025 3025 3025 3024 3024 3024 3024 3024 3023 3023 3023 3023 3024 3024 3024 3025 3025 3025 3025 3025 3025 3026 3027 3027 3027
3023 3023 3023 3023 3022 3022 3022 3022 3022 3022 3022 3022 3022 3022 3022 3022 3021 3021 3021 3021 3021 3020 3020 3020 3020 3020 3020 3020 3020 3019 3019 3019 3019 3019 3019 3019 3020 3020 3020 3021 3021 3021 3022 3022 3022 3022 3022 3022 3022 3022 3022 3022 3022 3022 3021 3021 3021 3021 3021 3022 3022 3022 3022 3022 3022 3023 3024 3024 3024
3022 3021 3021 3021 3020 3020 3020 3020 3020 3020 3020 3020 3020 3019 3019 3019 3019 3018 3018 3018 3018 3018 3018 3018 3018 3018 3018 3017 3017 3017 3017 3017 3017 3016 3016 3016 3017 3017 3017 3017 3018 3018 3019 3019 3020 3020 3020 3020 3020 3020 3020 3019 3020 3019 3019 3019 3019 3019 3018 3019 3019 3019 3019 3020 3020 3020 3021 3021 3022
3019 3019 3019 3018 3018 3018 3018 3017 3017 3017 3017 3017 3017 3017 3017 3016 3016 3016 3016 3015 3015 3015 3015 3015 3015 3015 3015 3015 3015 3015 3015 3014 3014 3014 3014 3014 3014 3014 3014 3014 3015 3015 3016 3016 3017 3017 3017 3017 3017 3017 3017 3017 3017 3017 3017 3017 3017 3017 3016 3016 3016 3017 3017 3017 3017 3017 3018 3018 3019
3017 3017 3017 3016 3016 3016 3015 3015 3015 3014 3014 3014 3014 3013 3013 3013 3013 3013 3012 3012 3012 3012 3012 3012 3012 3012 3012 3012 3012 3012 3012 3012 3012 3011 3011 3011 3011 3011 3011 3012 3012 3012 3012 3012 3013 3013 3014 3014 3015 3015 3015 3014 3014 3014 3014 3014 3014 3014 3014 3014 3014 3014 3014 3015 3015 3015 3016 3016 3017
3015 3014 3014 3013 3013 3013 3012 3012 3012 3012 3011 3011 3010 3010 3010 3009 3009 3009 3009 3009 3009 3009 3009 3008 3008 3008 3008 3008 3008 3008 3008 3008 3008 3008 3008 3008 3008 3008 3008 3009 3009 3009 3009 3009 3009 3010 3010 3011 3011 3011 3012 3012 3012 3011 3011 3011 3012 3012 3012 3012 3012 3012 3012 3012 3012 3013 3013 3014 3014
3012 3011 3011 3010 3010 3010 3009 3009 3008 3008 3008 3007 3007 3007 3006 3006 3006 3005 3005 3005 3005 3005 3005 3005 3005 3005 3005 3005 3005 3005 3005 3005 3005 3005 3005 3005 3005 3005 3005 3006 3006 3006 3006 3006 3006 3006 3007 3007 3007 3007 3008 3008 3008 3008 3008 3008 3008 3009 3009 3009 3010 3010 3010 3010 3010 3011 3011 3012 3012
3008 3008 3007 3007 3007 3006 3006 3005 3005 3004 3004 3004 3003 3003 3002 3002 3002 3002 3001 3001 3001 3001 3001 3001 3001 3001 3001 3001 3001 3001 3001 3001 3001 3001 3001 3001 3001 3002 3002 3002 3002 3003 3003 3003 3002 3003 3003 3003 3003 3004 3004 3004 3004 3005 3005 3005 3005 3006 3006 3006 3007 3007 3007 3008 3008 3008 3008 3009 3009
3005 3004 3004 3003 3003 3002 3002 3001 3001 3001 3000 3000 2999 2999 2999 2998 2998 2997 2997 2997 2997 2997 2997 2997 2997 2997 2996 2996 2996 2996 2996 2997 2997 2997 2997 2997 2997 2997 2997 2998 2998 2999 2999 2999 2999 2999 2999 3000 3000 3000 3000 3000 3001 3001 3001 3002 3002 3002 3002 3003 3003 3004 3004 3005 3005 3006 3006 3006 3007
3002 3002 3001 3000 3000 2999 2998 2998 2997 2997 2996 2996 2995 2995 2994 2994 2994 2993 2993 2992 2992 2992 2992 2992 2992 2992 2992 2992 2992 2992 2992 2992 2992 2992 2992 2992 2993 2993 2993 2993 2994 2995 2995 2995 2995 2995 2996 2996 2996 2996 2996 2997 2997 2997 2997 2998 2998 2999 2999 3000 3000 3001 3001 3002 3002 3003 3003 3003 3004
3000 2999 2999 2998 2997 2996 2996 2995 2994 2993 2992 2992 2992 2991 2990 2990 2990 2989 2989 2988 2988 2987 2987 2987 2987 2987 2987 2987 2987 2987 2987 2987 2987 2987 2987 2988 2988 2988 2988 2989 2989 2990 2991 2991 2991 2991 2991 2992 2992 2992 2992 2992 2992 2993 2993 2994 2994 2995 2995 2996 2997 2997 2998 2998 2999 2999 3000 3000 3001
2998 2997 2997 2996 2995 2994 2993 2992 2991 2990 2989 2989 2988 2987 2987 2986 2986 2985 2985 2984 2984 2983 2983 2983 2983 2983 2982 2982 2982 2982 2982 2983 2983 2983 2983 2983 2983 2983 2984 2984 2984 2985 2986 2987 2987 2987 2987 2987 2987 2987 2988 2988 2988 2989 2989 2990 2990 2991 2991 2992 2992 2993 2994 2995 2996 2996 2997 2997 2998
2996 2995 2994 2993 2992 2991 2990 2989 2988 2987 2987 2986 2985 2984 2983 2983 2982 2982 2981 2981 2980 2979 2979 2979 2979 2979 2978 2978 2977 2977 2978 2978 2978 2978 2978 2978 2978 2979 2979 2979 2980 2981 2981 2982 2982 2982 2982 2982 2983 2983 2983 2984 2984 2984 2985 2986 2986 2987 2987 2988 2989 2989 2990 2991 2992 2992 2993 2994 2994
2993 2992 2991 2990 2989 2988 2987 2986 2985 2984 2983 2982 2982 2981 2980 2979 2979 2978 2977 2977 2976 2975 2974 2974 2974 2974 2974 2973 2973 2973 2973 2974 2974 2974 2974 2974 2974 2974 2974 2975 2975 2976 2976 2977 2977 2977 2977 2978 2978 2979 2979 2979 2980 2980 2980 2981 2982 2982 2983 2984 2985 2985 2986 2987 2987 2988 2989 2990 2991